When you browse on this site, cookies collect data to enhance your experience and personalize the content and advertising you see.
Visit our Privacy Policy to learn more. By continuing to use the site, you agree to this use of cookies and data.
  • In Denmark
  • List of Countries
  • For 7 days
  • Water Temperature
  • Satellite Maps
  • Weather Map
  • Weather Widgets
  • user-avatar
    Login

    Hourly Weather Daulet

    Today, 18 December, Tuesday

    Time Temperature Precipitation Wind Pressure Humidity
    00:00 +3°C° 0 mm 6 mps 716 mmHg 58%
    01:00 +3°C° 0 mm 6 mps 715 mmHg 57%
    02:00 +3°C° 0 mm 6 mps 715 mmHg 57%
    03:00 +3°C° 0 mm 6 mps 714 mmHg 56%
    04:00 +3°C° 0 mm 6 mps 714 mmHg 55%
    05:00 0°C° 0 mm 4 mps 715 mmHg 65%
    06:00 -1°C° 0 mm 4 mps 715 mmHg 69%
    07:00 0°C° 0 mm 3 mps 715 mmHg 73%
    08:00 0°C° 0 mm 3 mps 715 mmHg 77%
    09:00 0°C° 0.3 mm 3 mps 715 mmHg 79%
    10:00 -1°C° 0.3 mm 4 mps 715 mmHg 81%
    11:00 0°C° 0 mm 4 mps 715 mmHg 83%
    12:00 0°C° 0.4 mm 4 mps 716 mmHg 82%
    13:00 0°C° 0.4 mm 4 mps 716 mmHg 82%
    14:00 0°C° 0.4 mm 5 mps 717 mmHg 82%
    15:00 -1°C° 0.1 mm 4 mps 717 mmHg 81%
    16:00 0°C° 0.1 mm 3 mps 718 mmHg 79%
    17:00 -2°C° 0 mm 3 mps 718 mmHg 80%
    18:00 -2°C° 0 mm 2 mps 718 mmHg 78%
    19:00 -2°C° 0 mm 2 mps 718 mmHg 76%
    20:00 -1°C° 0 mm 1 mps 718 mmHg 74%
    21:00 -3°C° 0 mm 2 mps 718 mmHg 72%
    22:00 -3°C° 0 mm 2 mps 718 mmHg 70%
    23:00 -3°C° 0 mm 2 mps 717 mmHg 67%

    Tomorrow, 19 December, Wednesday

    Time Temperature Precipitation Wind Pressure Humidity
    00:00 -3°C° 0 mm 2 mps 717 mmHg 67%
    01:00 -1°C° 0 mm 1 mps 717 mmHg 67%
    02:00 -1°C° 0 mm 1 mps 717 mmHg 66%
    03:00 -1°C° 0 mm 1 mps 717 mmHg 67%
    04:00 -1°C° 0 mm 1 mps 717 mmHg 69%
    05:00 -1°C° 0 mm 1 mps 717 mmHg 70%
    06:00 -1°C° 0 mm 1 mps 717 mmHg 71%
    07:00 -3°C° 0 mm 2 mps 717 mmHg 73%
    08:00 -2°C° 0 mm 2 mps 717 mmHg 75%
    09:00 -2°C° 0.1 mm 2 mps 717 mmHg 73%
    10:00 -1°C° 0.1 mm 2 mps 717 mmHg 71%
    11:00 +1°C° 0.1 mm 2 mps 717 mmHg 69%
    12:00 +1°C° 0.1 mm 2 mps 717 mmHg 69%
    13:00 +1°C° 0.1 mm 2 mps 717 mmHg 69%
    14:00 +1°C° 0.1 mm 2 mps 717 mmHg 69%
    15:00 +1°C° 0.1 mm 2 mps 717 mmHg 72%
    16:00 -1°C° 0.1 mm 2 mps 718 mmHg 76%
    17:00 -1°C° 0.1 mm 2 mps 718 mmHg 80%
    18:00 -2°C° 0.1 mm 2 mps 718 mmHg 80%
    19:00 -2°C° 0.1 mm 2 mps 719 mmHg 81%
    20:00 -2°C° 0.1 mm 2 mps 719 mmHg 82%
    21:00 -2°C° 0.1 mm 2 mps 719 mmHg 82%
    22:00 -2°C° 0.1 mm 2 mps 719 mmHg 82%
    23:00 -2°C° 0.1 mm 2 mps 720 mmHg 82%

    Day after tomorrow, 20 December, Thursday

    Time Temperature Precipitation Wind Pressure Humidity
    00:00 0°C° 0.1 mm 1 mps 720 mmHg 83%
    01:00 0°C° 0.1 mm 1 mps 720 mmHg 83%
    02:00 0°C° 0.1 mm 1 mps 721 mmHg 84%
    03:00 0°C° 0.2 mm 1 mps 721 mmHg 85%
    04:00 0°C° 0.2 mm 1 mps 721 mmHg 86%
    05:00 0°C° 0.2 mm 1 mps 722 mmHg 87%
    06:00 0°C° 0.2 mm 1 mps 722 mmHg 87%
    07:00 0°C° 0.2 mm 1 mps 722 mmHg 87%
    08:00 0°C° 0.2 mm 1 mps 723 mmHg 87%
    09:00 -2°C° 0.1 mm 2 mps 723 mmHg 86%
    10:00 -2°C° 0.1 mm 2 mps 723 mmHg 84%
    11:00 -2°C° 0.1 mm 2 mps 723 mmHg 82%
    12:00 -1°C° 0.1 mm 2 mps 723 mmHg 82%
    13:00 -1°C° 0.1 mm 2 mps 723 mmHg 81%
    14:00 -1°C° 0.1 mm 2 mps 723 mmHg 81%
    15:00 -2°C° 0.1 mm 2 mps 723 mmHg 83%
    16:00 -2°C° 0.1 mm 2 mps 724 mmHg 85%
    17:00 -3°C° 0.1 mm 2 mps 724 mmHg 87%
    18:00 -3°C° 0.1 mm 2 mps 724 mmHg 87%
    19:00 -4°C° 0.1 mm 2 mps 724 mmHg 87%
    20:00 -4°C° 0.1 mm 2 mps 725 mmHg 87%
    21:00 -4°C° 0.1 mm 2 mps 725 mmHg 87%
    22:00 -4°C° 0.1 mm 2 mps 725 mmHg 87%
    23:00 -5°C° 0.1 mm 2 mps 725 mmHg 86%

    21 December, Friday

    Time Temperature Precipitation Wind Pressure Humidity
    00:00 -5°C° 0 mm 2 mps 725 mmHg 86%
    01:00 -5°C° 0 mm 2 mps 725 mmHg 85%
    02:00 -5°C° 0 mm 2 mps 725 mmHg 85%
    03:00 -5°C° 0 mm 2 mps 725 mmHg 84%
    04:00 -6°C° 0 mm 2 mps 725 mmHg 84%
    05:00 -6°C° 0 mm 2 mps 725 mmHg 83%
    06:00 -6°C° 0 mm 2 mps 725 mmHg 82%
    07:00 -6°C° 0 mm 2 mps 725 mmHg 81%
    08:00 -6°C° 0 mm 2 mps 725 mmHg 80%
    09:00 -5°C° 0 mm 2 mps 725 mmHg 77%
    10:00 -4°C° 0 mm 2 mps 724 mmHg 73%
    11:00 -3°C° 0 mm 2 mps 724 mmHg 69%
    12:00 -4°C° 0 mm 3 mps 723 mmHg 68%
    13:00 -2°C° 0 mm 3 mps 722 mmHg 66%
    14:00 -2°C° 0 mm 3 mps 722 mmHg 64%
    15:00 -2°C° 0 mm 3 mps 722 mmHg 67%
    16:00 -4°C° 0 mm 3 mps 722 mmHg 70%
    17:00 -5°C° 0 mm 3 mps 721 mmHg 73%
    18:00 -5°C° 0 mm 4 mps 721 mmHg 73%
    19:00 -6°C° 0 mm 5 mps 721 mmHg 72%
    20:00 -5°C° 0 mm 5 mps 721 mmHg 71%
    21:00 -5°C° 0 mm 6 mps 720 mmHg 68%
    22:00 -5°C° 0 mm 6 mps 720 mmHg 65%
    23:00 -5°C° 0 mm 6 mps 719 mmHg 62%

    22 December, Saturday

    Time Temperature Precipitation Wind Pressure Humidity
    00:00 -5°C° 0 mm 6 mps 719 mmHg 59%
    01:00 -5°C° 0 mm 6 mps 718 mmHg 57%
    02:00 -5°C° 0 mm 6 mps 718 mmHg 54%
    03:00 -5°C° 0 mm 6 mps 717 mmHg 53%
    04:00 -5°C° 0 mm 6 mps 717 mmHg 52%
    05:00 -5°C° 0 mm 5 mps 716 mmHg 51%
    06:00 -4°C° 0 mm 5 mps 716 mmHg 50%
    07:00 -4°C° 0 mm 5 mps 716 mmHg 50%
    08:00 -4°C° 0 mm 5 mps 716 mmHg 49%
    09:00 -2°C° 0 mm 5 mps 716 mmHg 48%
    10:00 -1°C° 0 mm 5 mps 715 mmHg 46%
    11:00 +1°C° 0 mm 5 mps 715 mmHg 44%
    12:00 +1°C° 0 mm 5 mps 715 mmHg 46%
    13:00 +1°C° 0 mm 4 mps 714 mmHg 47%
    14:00 +1°C° 0 mm 4 mps 714 mmHg 48%
    15:00 +1°C° 0 mm 3 mps 714 mmHg 50%
    16:00 0°C° 0 mm 3 mps 714 mmHg 53%
    17:00 +1°C° 0 mm 2 mps 715 mmHg 55%
    18:00 +1°C° 0 mm 2 mps 715 mmHg 55%
    19:00 +1°C° 0 mm 2 mps 715 mmHg 55%
    20:00 +1°C° 0 mm 2 mps 715 mmHg 55%
    21:00 +1°C° 0 mm 2 mps 715 mmHg 55%
    22:00 +1°C° 0 mm 2 mps 715 mmHg 55%
    23:00 +1°C° 0 mm 2 mps 714 mmHg 55%

    23 December, Sunday

    Time Temperature Precipitation Wind Pressure Humidity
    00:00 +1°C° 0 mm 2 mps 714 mmHg 55%
    01:00 0°C° 0 mm 3 mps 714 mmHg 55%
    02:00 0°C° 0 mm 3 mps 714 mmHg 55%
    03:00 0°C° 0 mm 3 mps 714 mmHg 55%
    04:00 0°C° 0 mm 3 mps 714 mmHg 55%
    05:00 0°C° 0 mm 3 mps 714 mmHg 54%
    06:00 0°C° 0 mm 3 mps 714 mmHg 55%
    07:00 0°C° 0 mm 3 mps 714 mmHg 56%
    08:00 0°C° 0 mm 3 mps 714 mmHg 56%
    09:00 +1°C° 0 mm 3 mps 714 mmHg 55%
    10:00 +2°C° 0 mm 3 mps 714 mmHg 54%
    11:00 +3°C° 0 mm 3 mps 714 mmHg 53%
    12:00 +3°C° 0.1 mm 3 mps 714 mmHg 55%
    13:00 +4°C° 0.1 mm 2 mps 714 mmHg 57%
    14:00 +4°C° 0.1 mm 2 mps 714 mmHg 59%
    15:00 +4°C° 0.2 mm 1 mps 714 mmHg 62%
    16:00 +3°C° 0.2 mm 1 mps 715 mmHg 66%
    17:00 +2°C° 0.2 mm 1 mps 716 mmHg 69%
    18:00 +2°C° 0.4 mm 1 mps 716 mmHg 75%
    19:00 +2°C° 0.4 mm 1 mps 716 mmHg 80%
    20:00 -1°C° 0.4 mm 2 mps 717 mmHg 86%
    21:00 -1°C° 0.3 mm 2 mps 717 mmHg 87%
    22:00 -1°C° 0.3 mm 2 mps 717 mmHg 89%
    23:00 -2°C° 0.3 mm 2 mps 717 mmHg 91%
    Show more